Showing default

ION SCV-012, 60573

Orbit data source: Space-Track

ION SCV-012, 60573 is a payload satellite owned by D-ORBIT (IT) in SSO that was launched on Fri, 16 Aug 2024 UTC via an FALCON 9 launch vehicle from the Air Force Western Test Range (AFWTR). Payload-class satellites include a variety of spacecraft equipped with specific instruments for various scientific and technological missions. These include communications satellites like Starlink; space stations such as the ISS; scientific satellites like the Hubble; Earth observation satellites from companies like Planet Labs, Umbra, and HawkEye 360; GPS; miniature CubeSats for education and research; and military/defense satellites.

Loading next visibility...
Identifier
60573, 2024-149DK
Orbit
SSO
Country
Flag of ITIT
Related business
Manufacturer
D-ORBIT
Mission
Operational Commercial Technology
Bus & Motor
ION-SC, PM200
Mass
220 kg wet, 150 kg dry
Launch date (UTC)
2024-08-16 (1 year ago)
Launch vehicle
FALCON 9
Launch site
Air Force Western Test Range (AFWTR)
Object type
Payload
Rocket body
Debris
Shape & HBR
Box, 0.2 m
Radar Cross Section
0.240 m², Large (>1 m²)

Expand to show TLE details & history
Last TLE update: 13 hours ago

TLE from 13 hours ago
0 ION SCV-012
1 60573U 24149DK  25289.20687656  .00001839  00000-0  17712-3 0  9999
2 60573  97.7050   3.1313 0003783 154.8447 205.2958 14.94150564 63476
Epoch: 2025-10-16T04:57Z
TLE epoch observation values (Epoch: 2025-10-16T04:57:54.134Z)
Latitude
-0.00006°
Longitude
-96.31417°
Altitude
590.439 km
Speed
7.564 km/s
True Right ascension
00h 12m 31s
True Declination
0° 00' 00"
Sunlit
Object was in full shadow at epoch
Visualization orbit readout
Latitude
Unknown
Longitude
Unknown
Altitude
Unknown
Speed
Unknown
Apparent Right ascension
Unknown
Apparent Declination
Unknown
Sunlit
N/A
Visualization observer readout
Local Sidereal Time
12:32:39
Azimuth
Unknown
Elevation
Unknown
Doppler factor
Unknown
Orbital elements
Apogee altitude
584.657 km
Perigee altitude
579.391 km
Semi-major axis
6,960.161 km
Eccentricity
0.00038
Inclination
97.705°
RAAN
3.1313°
Arg. of periapsis
154.8447°
True anomaly
205.27728°
Mean anomaly
205.2958°
Eccentric anomaly
205.28654°
Mean motion
3.73778 °/min
Orbital period
96.31 mins
BSTAR
0.00017712
Loading maneuver chart data...
Computing Atmospheric mass density...
Loading historical data...
Loading historical data...
Loading historical data...
Loading historical data...
Loading historical data...
Loading historical data...
Loading historical data...

Documentation

Showing up to 5 results
|